User: anonymous   Login
Location: Clatteringshaws Loch
(55.0508°N, 4.2860°W)
Time: 15:27:14
(UTC+01:00)
Language:

Sapphire - Orbit

View from above orbital plane
View from above orbital plane
View from above satellite
View from above satellite

Ground track
Ground track

The orbit data is extracted from the following two-line orbital elements,

1 26932U 01043D   15118.15839384  .00000121  00000-0  78856-4 0  9999
2 26932 067.0560 307.4382 0007138 250.9645 109.0683 14.30135906708683
Epoch (UTC): 28 April 2015 03:48:05
Eccentricity: 0.0007138
inclination: 67.0560°
perigee height: 786 km
apogee height: 796 km
right ascension of ascending node: 307.4382°
argument of perigee: 250.9645°
revolutions per day: 14.30135906
mean anomaly at epoch: 109.0683°
orbit number at epoch: 70868

The dashed part of the orbit path shows where the satellite is in the earth's shadow,  

DLR